TimeCST,TemperatureF,Dew PointF,Humidity,Sea Level PressureIn,VisibilityMPH,Wind Direction,Wind SpeedMPH,Gust SpeedMPH,PrecipitationIn,Events,Conditions,WindDirDegrees,DateUTC
12:15 AM,-1.3,-4.9,85,29.93,10.0,Calm,Calm,-,N/A,Snow,Light Snow,0,2013-02-03 06:15:00
12:35 AM,-2.0,-5.6,85,29.93,10.0,Calm,Calm,-,N/A,,Overcast,0,2013-02-03 06:35:00
12:55 AM,-2.4,-5.8,85,29.93,3.0,Calm,Calm,-,N/A,Snow,Light Snow,0,2013-02-03 06:55:00
1:15 AM,-0.9,-4.4,85,29.92,3.0,Calm,Calm,-,N/A,Snow,Light Snow,0,2013-02-03 07:15:00
1:35 AM,-0.8,-4.0,86,29.92,5.0,Calm,Calm,-,N/A,Snow,Light Snow,0,2013-02-03 07:35:00
1:55 AM,-0.8,-4.0,86,29.91,10.0,Calm,Calm,-,N/A,,Overcast,0,2013-02-03 07:55:00
2:15 AM,0.3,-3.3,85,29.90,5.0,Calm,Calm,-,N/A,Snow,Light Snow,0,2013-02-03 08:15:00
2:35 AM,1.8,-1.7,86,29.89,4.0,Calm,Calm,-,N/A,,Overcast,0,2013-02-03 08:35:00
2:55 AM,3.2,-0.2,86,29.89,2.5,Calm,Calm,-,N/A,Snow,Light Snow,0,2013-02-03 08:55:00
3:15 AM,3.6,0.1,86,29.88,5.0,WSW,4.6,-,N/A,Snow,Light Snow,250,2013-02-03 09:15:00
3:55 AM,3.6,0.1,86,29.87,5.0,WSW,3.5,-,N/A,Snow,Light Snow,240,2013-02-03 09:55:00
4:15 AM,3.6,-0.0,85,29.87,4.0,WSW,4.6,-,N/A,Snow,Light Snow,240,2013-02-03 10:15:00
4:35 AM,3.7,0.3,86,29.87,5.0,WSW,4.6,-,N/A,Snow,Light Snow,250,2013-02-03 10:35:00
4:55 AM,3.9,0.3,85,29.87,7.0,West,4.6,-,N/A,Snow,Light Snow,260,2013-02-03 10:55:00
5:15 AM,4.1,0.9,86,29.88,5.0,West,5.8,-,N/A,Snow,Light Snow,270,2013-02-03 11:15:00
5:35 AM,4.3,0.7,85,29.87,4.0,West,5.8,-,N/A,Snow,Light Snow,270,2013-02-03 11:35:00
5:55 AM,4.5,0.7,84,29.87,7.0,West,5.8,-,N/A,Snow,Light Snow,260,2013-02-03 11:55:00
6:15 AM,4.5,0.5,84,29.88,4.0,West,4.6,-,N/A,Snow,Light Snow,270,2013-02-03 12:15:00
6:35 AM,4.8,1.0,84,29.88,4.0,West,4.6,-,N/A,Snow,Light Snow,280,2013-02-03 12:35:00
6:55 AM,5.4,1.4,84,29.88,4.0,WNW,3.5,-,N/A,Snow,Light Snow,290,2013-02-03 12:55:00
7:15 AM,5.9,1.0,80,29.89,5.0,WNW,5.8,-,N/A,Snow,Light Snow,290,2013-02-03 13:15:00
7:35 AM,5.9,0.5,78,29.90,10.0,WNW,6.9,-,N/A,Snow,Light Snow,290,2013-02-03 13:35:00
7:55 AM,5.9,0.1,77,29.91,10.0,WNW,8.1,-,N/A,,Overcast,300,2013-02-03 13:55:00
8:15 AM,5.9,-0.4,75,29.92,10.0,NW,8.1,-,N/A,,Overcast,310,2013-02-03 14:15:00
8:35 AM,5.9,-0.8,74,29.92,10.0,WNW,9.2,-,N/A,,Overcast,300,2013-02-03 14:35:00
8:55 AM,5.9,-1.3,72,29.91,10.0,WNW,10.4,-,N/A,,Mostly Cloudy,290,2013-02-03 14:55:00
9:15 AM,6.4,-1.3,71,29.91,10.0,NW,12.7,19.6,N/A,,Mostly Cloudy,310,2013-02-03 15:15:00
9:35 AM,6.4,-0.9,72,29.93,10.0,NW,11.5,21.9,N/A,,Overcast,310,2013-02-03 15:35:00
9:55 AM,6.8,-0.9,71,29.94,10.0,WNW,13.8,19.6,N/A,,Overcast,300,2013-02-03 15:55:00
10:15 AM,6.4,-1.1,71,29.95,7.0,WNW,11.5,19.6,N/A,,Overcast,300,2013-02-03 16:15:00
10:35 AM,6.8,-1.3,69,29.95,10.0,NW,12.7,18.4,N/A,,Mostly Cloudy,310,2013-02-03 16:35:00
10:55 AM,7.5,-1.1,68,29.94,10.0,WNW,11.5,17.3,N/A,,Mostly Cloudy,300,2013-02-03 16:55:00
11:15 AM,8.8,-0.8,65,29.94,10.0,West,9.2,16.1,N/A,,Scattered Clouds,280,2013-02-03 17:15:00
11:35 AM,9.5,-0.8,63,29.93,10.0,NW,11.5,18.4,N/A,,Mostly Cloudy,310,2013-02-03 17:35:00
11:55 AM,9.9,-0.9,62,29.92,10.0,West,13.8,-,N/A,,Scattered Clouds,260,2013-02-03 17:55:00
12:15 PM,10.9,-0.6,60,29.92,10.0,West,11.5,17.3,N/A,,Scattered Clouds,270,2013-02-03 18:15:00
12:35 PM,11.1,-0.2,60,29.92,10.0,West,11.5,20.7,N/A,,Scattered Clouds,270,2013-02-03 18:35:00
12:55 PM,11.1,-0.6,59,29.93,10.0,West,11.5,20.7,N/A,,Scattered Clouds,280,2013-02-03 18:55:00
1:15 PM,11.7,-0.2,59,29.93,10.0,West,11.5,20.7,N/A,,Mostly Cloudy,270,2013-02-03 19:15:00
1:35 PM,11.8,-0.0,59,29.93,10.0,West,9.2,21.9,N/A,,Mostly Cloudy,280,2013-02-03 19:35:00
1:55 PM,11.5,-0.0,60,29.93,10.0,West,13.8,18.4,N/A,,Mostly Cloudy,270,2013-02-03 19:55:00
2:15 PM,12.4,0.7,60,29.93,10.0,West,8.1,16.1,N/A,,Overcast,270,2013-02-03 20:15:00
2:35 PM,12.4,0.1,58,29.93,10.0,West,11.5,18.4,N/A,,Mostly Cloudy,280,2013-02-03 20:35:00
2:55 PM,12.2,-0.4,57,29.93,10.0,West,9.2,20.7,N/A,,Mostly Cloudy,280,2013-02-03 20:55:00
3:15 PM,12.7,-0.2,56,29.93,10.0,WNW,8.1,17.3,N/A,,Mostly Cloudy,300,2013-02-03 21:15:00
3:35 PM,12.6,-0.8,55,29.93,10.0,WNW,9.2,17.3,N/A,,Scattered Clouds,290,2013-02-03 21:35:00
3:55 PM,12.2,-0.8,56,29.93,10.0,West,11.5,17.3,N/A,,Clear,260,2013-02-03 21:55:00
4:15 PM,12.0,-1.3,55,29.93,10.0,West,12.7,18.4,N/A,,Clear,260,2013-02-03 22:15:00
4:35 PM,11.7,-1.3,56,29.93,10.0,West,9.2,-,N/A,,Clear,280,2013-02-03 22:35:00
4:55 PM,10.8,-1.5,58,29.93,10.0,West,6.9,-,N/A,,Clear,270,2013-02-03 22:55:00
5:15 PM,10.0,-1.5,60,29.94,10.0,West,5.8,-,N/A,,Clear,280,2013-02-03 23:15:00
5:35 PM,9.3,-1.8,61,29.94,10.0,West,3.5,-,N/A,,Clear,280,2013-02-03 23:35:00
5:55 PM,8.6,-2.2,62,29.94,10.0,West,3.5,-,N/A,,Clear,280,2013-02-03 23:55:00
6:15 PM,7.9,-2.2,64,29.95,10.0,Calm,Calm,-,N/A,,Clear,0,2013-02-04 00:15:00
6:35 PM,7.2,-2.2,66,29.95,10.0,West,3.5,-,N/A,,Clear,260,2013-02-04 00:35:00
6:55 PM,6.3,-2.4,68,29.95,10.0,Calm,Calm,-,N/A,,Mostly Cloudy,0,2013-02-04 00:55:00
7:15 PM,6.1,-2.9,67,29.95,10.0,Calm,Calm,-,N/A,,Overcast,0,2013-02-04 01:15:00
7:35 PM,4.3,-2.7,73,29.96,10.0,Calm,Calm,-,N/A,,Overcast,0,2013-02-04 01:35:00
7:55 PM,6.6,-2.0,68,29.96,10.0,Calm,Calm,-,N/A,,Overcast,0,2013-02-04 01:55:00
8:15 PM,7.2,-1.7,67,29.96,10.0,Calm,Calm,-,N/A,,Overcast,0,2013-02-04 02:15:00
8:35 PM,7.5,-1.8,66,29.96,10.0,West,3.5,-,N/A,,Overcast,260,2013-02-04 02:35:00
8:55 PM,6.8,-2.2,67,29.97,10.0,West,3.5,-,N/A,,Mostly Cloudy,270,2013-02-04 02:55:00
9:15 PM,6.3,-2.2,68,29.97,10.0,Calm,Calm,-,N/A,,Scattered Clouds,0,2013-02-04 03:15:00
9:35 PM,5.2,-2.6,70,29.97,10.0,Calm,Calm,-,N/A,,Clear,0,2013-02-04 03:35:00
9:55 PM,1.2,-4.0,79,29.98,10.0,Calm,Calm,-,N/A,,Clear,0,2013-02-04 03:55:00
10:15 PM,0.5,-4.0,81,29.96,10.0,Calm,Calm,-,N/A,,Scattered Clouds,0,2013-02-04 04:15:00
10:35 PM,0.1,-3.8,83,29.97,10.0,Calm,Calm,-,N/A,,Mostly Cloudy,0,2013-02-04 04:35:00
10:55 PM,1.0,-3.5,81,29.96,10.0,Calm,Calm,-,N/A,,Overcast,0,2013-02-04 04:55:00
11:15 PM,1.6,-2.6,83,29.96,10.0,Calm,Calm,-,N/A,,Overcast,0,2013-02-04 05:15:00
11:35 PM,2.3,-2.2,81,29.96,10.0,Calm,Calm,-,N/A,,Overcast,0,2013-02-04 05:35:00
11:55 PM,3.2,-1.8,80,29.97,10.0,Calm,Calm,-,N/A,,Overcast,0,2013-02-04 05:55:00